Berlin, NH

5:25 PM EDT on June 25, 2017 (GMT -0400)
Berlin Municipal

Weather History for KBML - July, 2013

Change the Weather History Date:

Tuesday, July 16, 2013

  Actual Average Record
Temperature  
Mean Temperature 74 °F -  
Max Temperature 90 °F 74 °F 90 °F (1998)
Min Temperature 59 °F 48 °F 37 °F (2015)
Cooling Degree Days 8    
Growing Degree Days 24 (Base 50)    
Moisture  
Dew Point 62 °F    
Average Humidity 74    
Maximum Humidity 97    
Minimum Humidity 43    
Precipitation  
Precipitation 0.00 in - - ()
Sea Level Pressure  
Sea Level Pressure 30.19 in    
Wind  
Wind Speed 1 mph (NW)    
Max Wind Speed 12 mph    
Max Gust Speed 17 mph    
Visibility 8 miles    
Events      
Averages and records for this station are not official NWS values.
T = Trace of Precipitation, MM = Missing Value Source: NWS Daily Summary

Daily Weather History Graph

Daily Weather History Graph

Search for Another Location

Airport or City:

Trip Planner

Search our weather history database for the weather conditions in past years. The results will help you decide how hot, cold, wet, or windy it might be!

Date:

Astronomy

Jul. 16, 2013 Rise Set
Actual Time 5:14 AM EDT 8:26 PM EDT
Civil Twilight 4:39 AM EDT 9:01 PM EDT
Nautical Twilight 3:53 AM EDT 9:46 PM EDT
Astronomical Twilight 2:57 AM EDT 10:42 PM EDT
Moon 1:58 PM EDT (7/16) No Moon Set
Length of Visible Light 16h 21m
Length of Day
15h 11m
First Quarter, 56% of the Moon is Illuminated
Jul 16
First Quarter
Jul 22
Full
Jul 29
Last Quarter
Aug 6
New
Aug 14
First Quarter

Hourly Weather History & Observations

Time (EDT) Temp. Heat Index Dew Point Humidity Pressure Visibility Wind Dir Wind Speed Gust Speed Precip Events Conditions
12:52 AM 63.0 °F - 61.0 °F 93% 30.18 in 8.0 mi Calm Calm - N/A   Clear
1:52 AM 64.0 °F - 63.0 °F 96% 30.17 in 6.0 mi Calm Calm - N/A   Clear
2:52 AM 61.0 °F - 60.1 °F 97% 30.18 in 7.0 mi Calm Calm - N/A   Clear
3:52 AM 60.1 °F - 59.0 °F 96% 30.18 in 8.0 mi Calm Calm - N/A   Scattered Clouds
4:38 AM 60.8 °F - 57.2 °F 88% 30.19 in 8.0 mi Calm Calm - N/A   Partly Cloudy
4:52 AM 59.0 °F - 57.9 °F 96% 30.18 in 6.0 mi Calm Calm - N/A   Clear
5:22 AM 59.0 °F - 57.2 °F 94% 30.20 in 5.0 mi Calm Calm - N/A   Partly Cloudy
5:52 AM 60.1 °F - 59.0 °F 96% 30.20 in 3.0 mi Calm Calm - N/A   Clear
6:01 AM 60.8 °F - 59.0 °F 94% 30.21 in 2.5 mi Calm Calm - N/A   Partly Cloudy
6:18 AM 62.6 °F - 60.8 °F 94% 30.21 in 4.0 mi Calm Calm - N/A   Clear
6:52 AM 64.9 °F - 63.0 °F 93% 30.20 in 6.0 mi Calm Calm - N/A   Clear
7:52 AM 71.1 °F - 64.9 °F 81% 30.20 in 9.0 mi Calm Calm - N/A   Clear
8:52 AM 79.0 °F - 66.9 °F 66% 30.21 in 10.0 mi Calm Calm - N/A   Clear
9:52 AM 82.9 °F 85.8 °F 68.0 °F 60% 30.21 in 10.0 mi NNW 4.6 mph - N/A   Clear
10:52 AM 84.0 °F 86.5 °F 66.9 °F 56% 30.20 in 10.0 mi NW 5.8 mph - N/A   Partly Cloudy
11:52 AM 86.0 °F 86.8 °F 63.0 °F 46% 30.20 in 10.0 mi NNW 11.5 mph 17.3 mph N/A   Clear
12:52 PM 86.0 °F 86.8 °F 63.0 °F 46% 30.19 in 10.0 mi Variable 6.9 mph - N/A   Clear
1:52 PM 87.1 °F 87.8 °F 63.0 °F 44% 30.18 in 10.0 mi NW 8.1 mph - N/A   Partly Cloudy
2:52 PM 88.0 °F 88.7 °F 63.0 °F 43% 30.18 in 10.0 mi Variable 5.8 mph - N/A   Mostly Cloudy
3:52 PM 88.0 °F 88.7 °F 63.0 °F 43% 30.18 in 10.0 mi NW 6.9 mph - N/A   Scattered Clouds
4:52 PM 88.0 °F 88.7 °F 63.0 °F 43% 30.17 in 10.0 mi NW 4.6 mph - N/A   Scattered Clouds
5:52 PM 87.1 °F 87.5 °F 62.1 °F 43% 30.17 in 10.0 mi Variable 5.8 mph - N/A   Clear
6:52 PM 84.9 °F 85.9 °F 63.0 °F 48% 30.18 in 10.0 mi NW 4.6 mph - N/A   Clear
7:52 PM 80.1 °F 81.5 °F 63.0 °F 56% 30.19 in 10.0 mi Calm Calm - N/A   Clear
8:52 PM 71.1 °F - 64.9 °F 81% 30.20 in 10.0 mi Calm Calm - N/A   Clear
9:52 PM 66.0 °F - 63.0 °F 90% 30.21 in 10.0 mi Calm Calm - N/A   Clear
10:52 PM 63.0 °F - 62.1 °F 97% 30.22 in 10.0 mi Calm Calm - N/A   Clear
11:52 PM 62.1 °F - 60.1 °F 93% 30.22 in 10.0 mi Calm Calm - N/A   Clear